Flag for Switzerland Weather past 2 weeks in Davos, Graubünden, Switzerland

Now
62 °F

Cool.


Feels Like: 62 °F
Forecast: 41 / 47 °F
Wind: 10 mph from Northeast

Location: Chur-Ems

Current Time: May 5, 2015 at 11:24:30 PM

Latest Report: May 5, 2015 at 10:00 PM


Visibility: N/A

Pressure: 29.89 "Hg

Humidity: 70%

Dew point: 52 °F

Location of DavosLocation

Historic Weather in Davos — Graph

°F

Davos temperature yesterday

Maximum temperature yesterday: 72 °F (at 4:00 PM)
Minimum temperature yesterday: 55 °F (at 7:00 AM)
Average temperature yesterday: 63 °F

Past Weeks' High & Low Weather Summary

 TemperatureHumidityPressure
High77 °F (May 5, 1:00 PM)96% (May 2, 11:00 PM)30.42 "Hg (May 2, 11:00 PM)
Low36 °F (Apr 29, 6:00 AM)16% (Apr 22, 3:00 PM)29.41 "Hg (Apr 27, 4:00 PM)
Average57 °F59%29.93 "Hg
* Reported Apr 20 10:00 PM — May 5 10:00 PM, Davos, Weather by CustomWeather, © 2015

Note: Actual official high and low records may vary slightly from our data, if they occured in-between our weather recording intervals... More about our weather records

Advertising

Davos weather history for previous 24 hours

 ConditionsComfort  
Time TempWeatherWind HumidityBarometerVisibility
10:00 PM
Tue, May 5
62 °FCool.10 mph70%29.89 "HgN/A
9:00 PM64 °FMild.13 mph66%29.85 "HgN/A
8:00 PM67 °FOvercast.7 mph57%29.80 "Hg7 mi
7:00 PM70 °FMild.6 mph52%29.76 "HgN/A
6:00 PM74 °FMild.7 mph40%29.72 "HgN/A
5:00 PM75 °FOvercast.14 mph40%29.71 "Hg8 mi
4:00 PM76 °FMild.14 mph38%29.72 "HgN/A
3:00 PM74 °FMild.15 mph41%29.73 "HgN/A
2:00 PM76 °FOvercast.12 mph41%29.74 "Hg11 mi
1:00 PM77 °FMild.17 mph35%29.73 "HgN/A
12:00 PM74 °FMild.14 mph36%29.75 "HgN/A
11:00 AM73 °FPartly sunny.10 mph45%29.76 "Hg9 mi
10:00 AM67 °FMild.15 mph55%29.79 "HgN/A
9:00 AM62 °FCool.13 mph62%29.81 "HgN/A
8:00 AM61 °FOvercast.8 mph63%29.83 "Hg10 mi
7:00 AM60 °FCool.12 mph62%29.83 "HgN/A
6:00 AM60 °FCool.10 mph63%29.82 "HgN/A
5:00 AM62 °FPassing clouds.14 mph59%29.83 "Hg10 mi
4:00 AM60 °FCool.9 mph65%29.84 "HgN/A
3:00 AM62 °FRefreshingly cool.14 mph60%29.84 "HgN/A
2:00 AM62 °FPassing clouds.16 mph58%29.84 "Hg10 mi
1:00 AM64 °FMild.14 mph55%29.83 "HgN/A
12:00 AM64 °FMild.15 mph58%29.84 "HgN/A
11:00 PM
Mon, May 4
65 °FPassing clouds.12 mph57%29.84 "Hg10 mi
Weather by CustomWeather, © 2015

See weather overviewHow to use our weather pages